Time,TemperatureF,DewpointF,PressureIn,WindDirection,WindDirectionDegrees,WindSpeedMPH,WindSpeedGustMPH,Humidity,HourlyPrecipIn,Conditions,Clouds,dailyrainin,SoftwareType,DateUTC
2013-05-01 00:08:00,51.1,45.0,30.23,ENE,61,5.0,9.0,79,0.00,,,0.00,weatherlink.com 1.10,2013-05-01 04:08:00,
2013-05-01 00:24:00,50.9,45.0,30.23,NE,55,3.0,5.0,80,0.00,,,0.00,weatherlink.com 1.10,2013-05-01 04:24:00,
2013-05-01 00:39:00,52.7,44.0,30.24,NE,55,2.0,5.0,73,0.00,,,0.00,weatherlink.com 1.10,2013-05-01 04:39:00,
2013-05-01 00:54:00,53.0,44.0,30.24,ENE,64,5.0,5.0,72,0.00,,,0.00,weatherlink.com 1.10,2013-05-01 04:54:00,
2013-05-01 01:09:00,51.8,44.0,30.25,ENE,63,4.0,7.0,75,0.00,,,0.00,weatherlink.com 1.10,2013-05-01 05:09:00,
2013-05-01 01:24:00,52.1,44.0,30.26,ENE,67,4.0,7.0,74,0.00,,,0.00,weatherlink.com 1.10,2013-05-01 05:24:00,
2013-05-01 01:39:00,53.2,44.0,30.26,ENE,66,1.0,3.0,71,0.00,,,0.00,weatherlink.com 1.10,2013-05-01 05:39:00,
2013-05-01 01:54:00,51.1,43.0,30.27,ENE,69,3.0,5.0,75,0.00,,,0.00,weatherlink.com 1.10,2013-05-01 05:54:00,
2013-05-01 02:09:00,53.1,43.0,30.27,ENE,59,2.0,5.0,68,0.00,,,0.00,weatherlink.com 1.10,2013-05-01 06:09:00,
2013-05-01 02:24:00,52.2,43.0,30.28,ENE,61,3.0,4.0,71,0.00,,,0.00,weatherlink.com 1.10,2013-05-01 06:24:00,
2013-05-01 02:39:00,51.2,43.0,30.29,ENE,69,0.0,4.0,74,0.00,,,0.00,weatherlink.com 1.10,2013-05-01 06:39:00,
2013-05-01 02:54:00,50.3,43.0,30.29,ENE,61,1.0,3.0,76,0.00,,,0.00,weatherlink.com 1.10,2013-05-01 06:54:00,
2013-05-01 03:09:00,50.1,42.0,30.30,ENE,61,0.0,3.0,75,0.00,,,0.00,weatherlink.com 1.10,2013-05-01 07:09:00,
2013-05-01 03:24:00,49.0,42.0,30.31,ENE,61,1.0,2.0,77,0.00,,,0.00,weatherlink.com 1.10,2013-05-01 07:24:00,
2013-05-01 03:39:00,47.6,42.0,30.31,ENE,61,0.0,3.0,81,0.00,,,0.00,weatherlink.com 1.10,2013-05-01 07:39:00,
2013-05-01 03:54:00,46.8,42.0,30.32,ENE,61,2.0,3.0,83,0.00,,,0.00,weatherlink.com 1.10,2013-05-01 07:54:00,
2013-05-01 04:09:00,46.1,41.0,30.32,ENE,61,3.0,4.0,83,0.00,,,0.00,weatherlink.com 1.10,2013-05-01 08:09:00,
2013-05-01 04:24:00,47.6,41.0,30.32,ENE,69,2.0,5.0,78,0.00,,,0.00,weatherlink.com 1.10,2013-05-01 08:24:00,
2013-05-01 04:39:00,46.1,41.0,30.32,NE,53,3.0,3.0,81,0.00,,,0.00,weatherlink.com 1.10,2013-05-01 08:39:00,
2013-05-01 04:54:00,47.4,40.0,30.32,ENE,57,2.0,3.0,75,0.00,,,0.00,weatherlink.com 1.10,2013-05-01 08:54:00,
2013-05-01 05:09:00,47.2,39.0,30.33,ENE,61,3.0,4.0,74,0.00,,,0.00,weatherlink.com 1.10,2013-05-01 09:09:00,
2013-05-01 05:24:00,47.6,39.0,30.33,NE,55,2.0,4.0,72,0.00,,,0.00,weatherlink.com 1.10,2013-05-01 09:24:00,
2013-05-01 05:39:00,47.0,38.0,30.33,ENE,66,3.0,5.0,72,0.00,,,0.00,weatherlink.com 1.10,2013-05-01 09:39:00,
2013-05-01 05:54:00,46.8,39.0,30.34,ENE,66,0.0,2.0,74,0.00,,,0.00,weatherlink.com 1.10,2013-05-01 09:54:00,
2013-05-01 06:09:00,45.6,38.0,30.34,ENE,66,0.0,1.0,76,0.00,,,0.00,weatherlink.com 1.10,2013-05-01 10:09:00,
2013-05-01 06:24:00,44.7,39.0,30.35,ENE,66,0.0,0.0,80,0.00,,,0.00,weatherlink.com 1.10,2013-05-01 10:24:00,
2013-05-01 06:39:00,44.1,39.0,30.35,ENE,66,1.0,2.0,81,0.00,,,0.00,weatherlink.com 1.10,2013-05-01 10:39:00,
2013-05-01 06:54:00,44.4,39.0,30.36,ENE,66,1.0,2.0,82,0.00,,,0.00,weatherlink.com 1.10,2013-05-01 10:54:00,
2013-05-01 07:09:00,46.4,40.0,30.36,ENE,66,2.0,3.0,78,0.00,,,0.00,weatherlink.com 1.10,2013-05-01 11:09:00,
2013-05-01 07:24:00,48.0,40.0,30.37,NE,51,2.0,3.0,75,0.00,,,0.00,weatherlink.com 1.10,2013-05-01 11:24:00,
2013-05-01 07:39:00,49.6,42.0,30.38,NE,49,0.0,1.0,75,0.00,,,0.00,weatherlink.com 1.10,2013-05-01 11:39:00,
2013-05-01 07:55:00,54.4,45.0,30.38,SSE,157,0.0,2.0,71,0.00,,,0.00,weatherlink.com 1.10,2013-05-01 11:55:00,
2013-05-01 08:10:00,59.0,44.0,30.39,SSE,159,1.0,2.0,59,0.00,,,0.00,weatherlink.com 1.10,2013-05-01 12:10:00,
2013-05-01 08:25:00,62.6,43.0,30.39,South,183,1.0,3.0,49,0.00,,,0.00,weatherlink.com 1.10,2013-05-01 12:25:00,
2013-05-01 08:40:00,63.8,40.0,30.38,SSE,154,1.0,3.0,42,0.00,,,0.00,weatherlink.com 1.10,2013-05-01 12:40:00,
2013-05-01 08:55:00,66.6,41.0,30.38,SW,230,1.0,3.0,39,0.00,,,0.00,weatherlink.com 1.10,2013-05-01 12:55:00,
2013-05-01 09:10:00,68.9,41.0,30.38,South,179,4.0,4.0,37,0.00,,,0.00,weatherlink.com 1.10,2013-05-01 13:10:00,
2013-05-01 09:25:00,69.6,41.0,30.38,WSW,242,2.0,7.0,36,0.00,,,0.00,weatherlink.com 1.10,2013-05-01 13:25:00,
2013-05-01 09:40:00,70.4,43.0,30.39,SSW,202,0.0,4.0,37,0.00,,,0.00,weatherlink.com 1.10,2013-05-01 13:40:00,
2013-05-01 09:55:00,71.7,44.0,30.39,SSW,207,3.0,6.0,37,0.00,,,0.00,weatherlink.com 1.10,2013-05-01 13:55:00,
2013-05-01 10:10:00,73.3,43.0,30.39,SW,236,1.0,7.0,34,0.00,,,0.00,weatherlink.com 1.10,2013-05-01 14:10:00,
2013-05-01 10:25:00,74.4,45.0,30.38,SSW,198,3.0,6.0,35,0.00,,,0.00,weatherlink.com 1.10,2013-05-01 14:25:00,
2013-05-01 10:40:00,75.5,46.0,30.38,SW,219,0.0,6.0,35,0.00,,,0.00,weatherlink.com 1.10,2013-05-01 14:40:00,
2013-05-01 10:55:00,76.0,41.0,30.37,SSW,207,0.0,6.0,29,0.00,,,0.00,weatherlink.com 1.10,2013-05-01 14:55:00,
2013-05-01 11:10:00,76.5,43.0,30.37,SW,218,4.0,6.0,30,0.00,,,0.00,weatherlink.com 1.10,2013-05-01 15:10:00,
2013-05-01 11:25:00,77.5,45.0,30.36,South,185,0.0,4.0,31,0.00,,,0.00,weatherlink.com 1.10,2013-05-01 15:25:00,
2013-05-01 11:40:00,74.8,43.0,30.35,NE,43,1.0,3.0,32,0.00,,,0.00,weatherlink.com 1.10,2013-05-01 15:40:00,
2013-05-01 11:55:00,73.4,42.0,30.34,ENE,61,1.0,7.0,32,0.00,,,0.00,weatherlink.com 1.10,2013-05-01 15:55:00,
2013-05-01 12:10:00,74.7,43.0,30.34,ENE,70,3.0,6.0,32,0.00,,,0.00,weatherlink.com 1.10,2013-05-01 16:10:00,
2013-05-01 12:25:00,73.7,44.0,30.34,South,179,2.0,4.0,34,0.00,,,0.00,weatherlink.com 1.10,2013-05-01 16:25:00,
2013-05-01 12:40:00,76.9,47.0,30.33,SSW,204,4.0,4.0,35,0.00,,,0.00,weatherlink.com 1.10,2013-05-01 16:40:00,
2013-05-01 12:55:00,78.7,42.0,30.33,NNE,18,3.0,6.0,27,0.00,,,0.00,weatherlink.com 1.10,2013-05-01 16:55:00,
2013-05-01 13:10:00,77.1,43.0,30.33,NNE,20,3.0,9.0,30,0.00,,,0.00,weatherlink.com 1.10,2013-05-01 17:10:00,
2013-05-01 13:25:00,74.4,41.0,30.32,NE,55,7.0,13.0,30,0.00,,,0.00,weatherlink.com 1.10,2013-05-01 17:25:00,
2013-05-01 13:40:00,77.2,43.0,30.32,West,269,4.0,5.0,29,0.00,,,0.00,weatherlink.com 1.10,2013-05-01 17:40:00,
2013-05-01 13:55:00,79.1,42.0,30.31,ENE,61,3.0,10.0,27,0.00,,,0.00,weatherlink.com 1.10,2013-05-01 17:55:00,
2013-05-01 14:10:00,75.8,41.0,30.31,ENE,64,1.0,8.0,29,0.00,,,0.00,weatherlink.com 1.10,2013-05-01 18:10:00,
2013-05-01 14:25:00,76.2,43.0,30.31,NNE,29,1.0,6.0,30,0.00,,,0.00,weatherlink.com 1.10,2013-05-01 18:25:00,
2013-05-01 14:40:00,78.7,45.0,30.31,SSW,198,2.0,3.0,30,0.00,,,0.00,weatherlink.com 1.10,2013-05-01 18:40:00,
2013-05-01 14:56:00,80.7,45.0,30.31,SSE,152,0.0,5.0,28,0.00,,,0.00,weatherlink.com 1.10,2013-05-01 18:56:00,
2013-05-01 15:11:00,83.3,41.0,30.30,WSW,238,1.0,6.0,22,0.00,,,0.00,weatherlink.com 1.10,2013-05-01 19:11:00,
2013-05-01 15:26:00,80.0,42.0,30.29,ENE,76,1.0,5.0,26,0.00,,,0.00,weatherlink.com 1.10,2013-05-01 19:26:00,
2013-05-01 15:41:00,78.2,40.0,30.29,NE,54,1.0,11.0,25,0.00,,,0.00,weatherlink.com 1.10,2013-05-01 19:41:00,
2013-05-01 15:56:00,77.3,39.0,30.29,NE,51,3.0,9.0,25,0.00,,,0.00,weatherlink.com 1.10,2013-05-01 19:56:00,
2013-05-01 16:11:00,78.8,39.0,30.29,ENE,57,0.0,3.0,24,0.00,,,0.00,weatherlink.com 1.10,2013-05-01 20:11:00,
2013-05-01 16:26:00,80.3,44.0,30.29,ENE,70,1.0,7.0,28,0.00,,,0.00,weatherlink.com 1.10,2013-05-01 20:26:00,
2013-05-01 16:41:00,78.2,46.0,30.29,NE,43,2.0,7.0,32,0.00,,,0.00,weatherlink.com 1.10,2013-05-01 20:41:00,
2013-05-01 16:56:00,78.4,45.0,30.29,NE,55,0.0,3.0,31,0.00,,,0.00,weatherlink.com 1.10,2013-05-01 20:56:00,
2013-05-01 17:11:00,80.9,44.0,30.29,South,181,0.0,6.0,27,0.00,,,0.00,weatherlink.com 1.10,2013-05-01 21:11:00,
2013-05-01 17:26:00,80.5,44.0,30.29,East,96,1.0,5.0,28,0.00,,,0.00,weatherlink.com 1.10,2013-05-01 21:26:00,
2013-05-01 17:41:00,77.5,44.0,30.29,ENE,74,0.0,3.0,30,0.00,,,0.00,weatherlink.com 1.10,2013-05-01 21:41:00,
2013-05-01 17:56:00,76.2,43.0,30.30,South,184,1.0,4.0,31,0.00,,,0.00,weatherlink.com 1.10,2013-05-01 21:56:00,
2013-05-01 18:11:00,75.2,43.0,30.30,South,181,0.0,7.0,32,0.00,,,0.00,weatherlink.com 1.10,2013-05-01 22:11:00,
2013-05-01 18:26:00,74.6,45.0,30.30,South,181,0.0,2.0,35,0.00,,,0.00,weatherlink.com 1.10,2013-05-01 22:26:00,
2013-05-01 18:41:00,73.5,44.0,30.30,South,181,0.0,2.0,35,0.00,,,0.00,weatherlink.com 1.10,2013-05-01 22:41:00,
2013-05-01 18:56:00,73.0,43.0,30.30,South,181,0.0,1.0,34,0.00,,,0.00,weatherlink.com 1.10,2013-05-01 22:56:00,
2013-05-01 19:11:00,72.4,44.0,30.30,SSW,194,0.0,1.0,36,0.00,,,0.00,weatherlink.com 1.10,2013-05-01 23:11:00,
2013-05-01 19:26:00,71.4,44.0,30.31,SSW,194,0.0,1.0,37,0.00,,,0.00,weatherlink.com 1.10,2013-05-01 23:26:00,
2013-05-01 19:41:00,70.2,44.0,30.31,SSW,194,0.0,1.0,39,0.00,,,0.00,weatherlink.com 1.10,2013-05-01 23:41:00,
2013-05-01 19:56:00,68.5,44.0,30.31,SSE,155,0.0,2.0,41,0.00,,,0.00,weatherlink.com 1.10,2013-05-01 23:56:00,
2013-05-01 20:11:00,66.5,44.0,30.32,SSE,155,0.0,1.0,45,0.00,,,0.00,weatherlink.com 1.10,2013-05-02 00:11:00,
2013-05-01 20:26:00,64.9,46.0,30.32,SE,145,1.0,2.0,50,0.00,,,0.00,weatherlink.com 1.10,2013-05-02 00:26:00,
2013-05-01 20:41:00,63.7,44.0,30.32,ENE,67,0.0,3.0,49,0.00,,,0.00,weatherlink.com 1.10,2013-05-02 00:41:00,
2013-05-01 20:56:00,61.0,44.0,30.33,ENE,66,3.0,3.0,54,0.00,,,0.00,weatherlink.com 1.10,2013-05-02 00:56:00,
2013-05-01 21:11:00,60.8,44.0,30.34,ENE,57,2.0,3.0,54,0.00,,,0.00,weatherlink.com 1.10,2013-05-02 01:11:00,
2013-05-01 21:28:00,59.1,44.0,30.34,ENE,61,2.0,7.0,57,0.00,,,0.00,weatherlink.com 1.10,2013-05-02 01:28:00,
2013-05-01 21:41:00,59.4,44.0,30.34,ENE,58,3.0,5.0,57,0.00,,,0.00,weatherlink.com 1.10,2013-05-02 01:41:00,
2013-05-01 21:56:00,58.3,44.0,30.34,NE,51,3.0,4.0,59,0.00,,,0.00,weatherlink.com 1.10,2013-05-02 01:56:00,
2013-05-01 22:11:00,57.8,44.0,30.34,ENE,64,4.0,5.0,61,0.00,,,0.00,weatherlink.com 1.10,2013-05-02 02:11:00,
2013-05-01 22:26:00,57.3,44.0,30.34,ENE,63,3.0,5.0,61,0.00,,,0.00,weatherlink.com 1.10,2013-05-02 02:26:00,
2013-05-01 22:41:00,57.1,44.0,30.34,ENE,61,3.0,5.0,62,0.00,,,0.00,weatherlink.com 1.10,2013-05-02 02:41:00,
2013-05-01 22:56:00,55.1,44.0,30.34,NE,55,3.0,4.0,66,0.00,,,0.00,weatherlink.com 1.10,2013-05-02 02:56:00,
2013-05-01 23:11:00,54.6,43.0,30.34,NE,55,1.0,4.0,66,0.00,,,0.00,weatherlink.com 1.10,2013-05-02 03:11:00,
2013-05-01 23:26:00,54.0,43.0,30.34,ENE,60,3.0,4.0,67,0.00,,,0.00,weatherlink.com 1.10,2013-05-02 03:26:00,
2013-05-01 23:41:00,54.4,44.0,30.34,ENE,63,1.0,4.0,67,0.00,,,0.00,weatherlink.com 1.10,2013-05-02 03:41:00,
2013-05-01 23:56:00,53.7,43.0,30.35,ENE,59,2.0,4.0,68,0.00,,,0.00,weatherlink.com 1.10,2013-05-02 03:56:00,